sat.trackr.live / text

‹ back to catalog

ASIASAT 4

NORAD 27718 · 2003-014A

PAYLOAD ACTIVE UNKNOWN

§ Identity

Operator
Country
AC
Launch date
2003-04-12
Launch site
AFETR
Launch vehicle
Mass (kg)
RCS (m²)
25.12

Purposes: comms

External: N2YO · Heavens-Above · Gunter

§ Orbital elements

Epoch: 2026-05-25T05:02:38.473728Z

Period
1,436.12 min
Inclination
4.6466°
Eccentricity
0.0002914
Mean motion
1.00269898 rev/d
Perigee alt
35,774.8 km
Apogee alt
35,799.4 km
Semi-major
42,165.3 km
B*
0.0000e+0
RAAN
76.0274°
Arg perigee
355.8291°
Mean anomaly
34.1297°
Rev number
4,507

§ Raw data

ASIASAT 41 27718U 03014A   26145.21016752 -.00000224  00000+0  00000+0 0  99922 27718   4.6466  76.0274 0002914 355.8291  34.1297  1.00269898 45073

JSON: /api/v1/satellites/27718 · /tle

For live sub-satellite position, see the globe view (requires WebGL).

§ Visibility from observer

Set your observer location to see the next 7 days of passes ≥ 10°. The values pass through the URL so the page stays shareable.

No JS? Fill the form by hand. The geolocation button needs JavaScript.